When you browse on this site, cookies collect data to enhance your experience and personalize the content and advertising you see.
Visit our Privacy Policy to learn more. By continuing to use the site, you agree to this use of cookies and data.
  • In Deutschland
  • Länderverzeichnis
  • Für 7 Tage
  • Wassertemperatur
  • Satellitenkarten
  • Wetterkarte
  • Widgets
  • user-avatar
    Anmelden

    Stündliche Wetter Sindelfingen

    Heute, 23 Februar, Samstag

    Zeit Temperatur Niederschläge Wind Luftdruck Luftfeuchtigkeit
    00:00 +4°C° 0 mm 2 m/S 735 mmHg 93%
    01:00 +4°C° 0 mm 2 m/S 736 mmHg 94%
    02:00 +3°C° 0 mm 2 m/S 736 mmHg 93%
    03:00 +3°C° 0 mm 2 m/S 736 mmHg 92%
    04:00 +2°C° 0 mm 2 m/S 735 mmHg 91%
    05:00 +2°C° 0 mm 2 m/S 735 mmHg 91%
    06:00 +1°C° 0 mm 2 m/S 735 mmHg 91%
    07:00 +1°C° 0 mm 1 m/S 736 mmHg 92%
    08:00 +1°C° 0 mm 2 m/S 735 mmHg 85%
    09:00 +2°C° 0 mm 2 m/S 735 mmHg 77%
    10:00 +2°C° 0 mm 3 m/S 735 mmHg 69%
    11:00 +3°C° 0 mm 3 m/S 735 mmHg 59%
    12:00 +5°C° 0 mm 4 m/S 735 mmHg 48%
    13:00 +6°C° 0 mm 4 m/S 735 mmHg 38%
    14:00 +6°C° 0 mm 4 m/S 735 mmHg 37%
    15:00 +6°C° 0 mm 4 m/S 734 mmHg 36%
    16:00 +6°C° 0 mm 4 m/S 734 mmHg 34%
    17:00 +4°C° 0 mm 4 m/S 734 mmHg 38%
    18:00 +3°C° 0 mm 3 m/S 734 mmHg 41%
    19:00 +2°C° 0 mm 3 m/S 734 mmHg 44%
    20:00 +1°C° 0 mm 3 m/S 734 mmHg 43%
    21:00 0°C° 0 mm 3 m/S 734 mmHg 43%
    22:00 +1°C° 0 mm 2 m/S 734 mmHg 42%
    23:00 -1°C° 0 mm 2 m/S 735 mmHg 41%

    Morgen, 24 Februar, Sonntag

    Zeit Temperatur Niederschläge Wind Luftdruck Luftfeuchtigkeit
    00:00 -1°C° 0 mm 2 m/S 735 mmHg 41%
    01:00 -1°C° 0 mm 2 m/S 735 mmHg 40%
    02:00 -1°C° 0 mm 2 m/S 735 mmHg 39%
    03:00 +1°C° 0 mm 1 m/S 734 mmHg 39%
    04:00 +1°C° 0 mm 1 m/S 734 mmHg 38%
    05:00 +1°C° 0 mm 1 m/S 734 mmHg 38%
    06:00 +1°C° 0 mm 1 m/S 735 mmHg 38%
    07:00 0°C° 0 mm 1 m/S 735 mmHg 38%
    08:00 +2°C° 0 mm 1 m/S 735 mmHg 35%
    09:00 +4°C° 0 mm 1 m/S 735 mmHg 31%
    10:00 +4°C° 0 mm 2 m/S 736 mmHg 28%
    11:00 +6°C° 0 mm 2 m/S 736 mmHg 28%
    12:00 +7°C° 0 mm 2 m/S 736 mmHg 27%
    13:00 +9°C° 0 mm 2 m/S 736 mmHg 27%
    14:00 +9°C° 0 mm 2 m/S 735 mmHg 31%
    15:00 +9°C° 0 mm 2 m/S 735 mmHg 34%
    16:00 +9°C° 0 mm 2 m/S 735 mmHg 38%
    17:00 +8°C° 0 mm 2 m/S 735 mmHg 43%
    18:00 +6°C° 0 mm 2 m/S 735 mmHg 48%
    19:00 +5°C° 0 mm 1 m/S 735 mmHg 53%
    20:00 +4°C° 0 mm 1 m/S 735 mmHg 54%
    21:00 +4°C° 0 mm 1 m/S 735 mmHg 55%
    22:00 +3°C° 0 mm 1 m/S 735 mmHg 57%
    23:00 +3°C° 0 mm 1 m/S 735 mmHg 57%

    übermorgen, 25 Februar, Montag

    Zeit Temperatur Niederschläge Wind Luftdruck Luftfeuchtigkeit
    00:00 +3°C° 0 mm 1 m/S 735 mmHg 56%
    01:00 +2°C° 0 mm 1 m/S 735 mmHg 56%
    02:00 +2°C° 0 mm 1 m/S 735 mmHg 57%
    03:00 +2°C° 0 mm 1 m/S 735 mmHg 57%
    04:00 +2°C° 0 mm 1 m/S 735 mmHg 57%
    05:00 +2°C° 0 mm 1 m/S 735 mmHg 58%
    06:00 +2°C° 0 mm 1 m/S 735 mmHg 59%
    07:00 +2°C° 0 mm 1 m/S 735 mmHg 59%
    08:00 +4°C° 0 mm 1 m/S 735 mmHg 57%
    09:00 +5°C° 0 mm 1 m/S 736 mmHg 54%
    10:00 +7°C° 0 mm 1 m/S 736 mmHg 51%
    11:00 +8°C° 0 mm 2 m/S 736 mmHg 51%
    12:00 +9°C° 0 mm 2 m/S 736 mmHg 50%
    13:00 +12°C° 0 mm 2 m/S 736 mmHg 50%
    14:00 +12°C° 0 mm 2 m/S 735 mmHg 52%
    15:00 +13°C° 0 mm 2 m/S 735 mmHg 54%
    16:00 +13°C° 0 mm 2 m/S 735 mmHg 56%
    17:00 +10°C° 0 mm 2 m/S 735 mmHg 64%
    18:00 +9°C° 0 mm 1 m/S 735 mmHg 71%
    19:00 +7°C° 0 mm 1 m/S 735 mmHg 78%
    20:00 +7°C° 0 mm 1 m/S 735 mmHg 80%
    21:00 +6°C° 0 mm 1 m/S 735 mmHg 82%
    22:00 +5°C° 0 mm 0 m/S 735 mmHg 83%
    23:00 +4°C° 0 mm 0 m/S 735 mmHg 83%

    26 Februar, Dienstag

    Zeit Temperatur Niederschläge Wind Luftdruck Luftfeuchtigkeit
    00:00 +4°C° 0 mm 0 m/S 735 mmHg 84%
    01:00 +4°C° 0 mm 0 m/S 735 mmHg 84%
    02:00 +4°C° 0 mm 0 m/S 735 mmHg 84%
    03:00 +4°C° 0 mm 1 m/S 735 mmHg 84%
    04:00 +4°C° 0 mm 1 m/S 734 mmHg 83%
    05:00 +4°C° 0 mm 1 m/S 734 mmHg 83%
    06:00 +3°C° 0 mm 0 m/S 734 mmHg 82%
    07:00 +3°C° 0 mm 0 m/S 734 mmHg 81%
    08:00 +5°C° 0 mm 0 m/S 734 mmHg 74%
    09:00 +6°C° 0 mm 0 m/S 734 mmHg 68%
    10:00 +8°C° 0 mm 0 m/S 735 mmHg 61%
    11:00 +11°C° 0 mm 1 m/S 734 mmHg 56%
    12:00 +12°C° 0 mm 1 m/S 734 mmHg 50%
    13:00 +14°C° 0 mm 1 m/S 734 mmHg 45%
    14:00 +14°C° 0 mm 1 m/S 734 mmHg 47%
    15:00 +14°C° 0 mm 1 m/S 733 mmHg 48%
    16:00 +14°C° 0 mm 1 m/S 733 mmHg 50%
    17:00 +12°C° 0 mm 1 m/S 733 mmHg 56%
    18:00 +10°C° 0 mm 1 m/S 733 mmHg 62%
    19:00 +8°C° 0 mm 0 m/S 733 mmHg 68%
    20:00 +7°C° 0 mm 0 m/S 733 mmHg 70%
    21:00 +7°C° 0 mm 0 m/S 733 mmHg 72%
    22:00 +6°C° 0 mm 0 m/S 733 mmHg 74%
    23:00 +6°C° 0 mm 0 m/S 733 mmHg 75%

    27 Februar, Mittwoch

    Zeit Temperatur Niederschläge Wind Luftdruck Luftfeuchtigkeit
    00:00 +5°C° 0 mm 0 m/S 732 mmHg 76%
    01:00 +6°C° 0 mm 1 m/S 732 mmHg 76%
    02:00 +6°C° 0 mm 1 m/S 732 mmHg 76%
    03:00 +6°C° 0 mm 1 m/S 731 mmHg 76%
    04:00 +5°C° 0 mm 1 m/S 731 mmHg 76%
    05:00 +5°C° 0 mm 1 m/S 731 mmHg 76%
    06:00 +5°C° 0 mm 1 m/S 731 mmHg 75%
    07:00 +5°C° 0 mm 1 m/S 731 mmHg 75%
    08:00 +7°C° 0 mm 1 m/S 731 mmHg 69%
    09:00 +8°C° 0 mm 1 m/S 731 mmHg 63%
    10:00 +10°C° 0 mm 1 m/S 731 mmHg 57%
    11:00 +12°C° 0 mm 1 m/S 730 mmHg 52%
    12:00 +14°C° 0 mm 1 m/S 730 mmHg 47%
    13:00 +15°C° 0 mm 1 m/S 730 mmHg 42%
    14:00 +14°C° 0 mm 0 m/S 730 mmHg 43%
    15:00 +15°C° 0 mm 0 m/S 729 mmHg 43%
    16:00 +15°C° 0 mm 0 m/S 729 mmHg 44%
    17:00 +13°C° 0 mm 0 m/S 729 mmHg 50%
    18:00 +11°C° 0 mm 0 m/S 728 mmHg 55%
    19:00 +9°C° 0 mm 0 m/S 728 mmHg 61%
    20:00 +10°C° 0 mm 1 m/S 728 mmHg 63%
    21:00 +9°C° 0 mm 1 m/S 728 mmHg 66%
    22:00 +8°C° 0 mm 1 m/S 728 mmHg 69%
    23:00 +8°C° 0 mm 1 m/S 728 mmHg 70%

    28 Februar, Donnerstag

    Zeit Temperatur Niederschläge Wind Luftdruck Luftfeuchtigkeit
    00:00 +7°C° 0 mm 2 m/S 728 mmHg 72%
    01:00 +6°C° 0 mm 2 m/S 728 mmHg 73%
    02:00 +6°C° 0 mm 2 m/S 728 mmHg 74%
    03:00 +6°C° 0 mm 2 m/S 728 mmHg 75%
    04:00 +6°C° 0 mm 2 m/S 727 mmHg 76%
    05:00 +5°C° 0 mm 3 m/S 727 mmHg 76%
    06:00 +5°C° 0 mm 3 m/S 727 mmHg 76%
    07:00 +5°C° 0 mm 3 m/S 727 mmHg 77%
    08:00 +6°C° 0 mm 4 m/S 727 mmHg 75%
    09:00 +8°C° 0 mm 5 m/S 728 mmHg 73%
    10:00 +9°C° 0 mm 5 m/S 728 mmHg 71%
    11:00 +10°C° 0 mm 5 m/S 728 mmHg 67%
    12:00 +11°C° 0 mm 6 m/S 728 mmHg 63%
    13:00 +13°C° 0 mm 6 m/S 728 mmHg 58%
    14:00 +13°C° 0 mm 6 m/S 728 mmHg 60%
    15:00 +13°C° 0 mm 6 m/S 728 mmHg 61%
    16:00 +13°C° 0 mm 5 m/S 728 mmHg 62%
    17:00 +10°C° 0.1 mm 5 m/S 728 mmHg 69%
    18:00 +10°C° 0.1 mm 4 m/S 728 mmHg 76%
    19:00 +8°C° 0.1 mm 3 m/S 729 mmHg 83%
    20:00 +8°C° 0 mm 3 m/S 729 mmHg 84%
    21:00 +8°C° 0 mm 3 m/S 729 mmHg 84%
    22:00 +7°C° 0 mm 3 m/S 729 mmHg 85%
    23:00 +7°C° 0 mm 2 m/S 729 mmHg 86%
    Mehr zeigen